Regional Weather Roundup
Issued by NWS

Home | Current Version | Previous Version | Graphics & Text | Print | Product List | Glossary On
Versions: 1 2 3 4 5 6 7 8 9 10 11 12 13 14 15 16 17 18 19 20 21 22 23 24 25 26 27 28 29 30 31 32 33 34 35 36 37 38 39 40 41 42 43 44 45 46 47 48 49 50
041
ASUS45 KPSR 210210
RWRAZ

ARIZONA HOURLY REGIONAL WEATHER ROUNDUP
NATIONAL WEATHER SERVICE PHOENIX AZ
700 PM MST THU JUL 20 2017

NOTE: FAIR INDICATES FEW OR NO CLOUDS BELOW 12,000 FEET WITH NO
SIGNIFICANT WEATHER AND/OR OBSTRUCTIONS TO VISIBILITY.

AZZ001>003-036-210300-
NORTHWEST ARIZONA

CITY           SKY/WX    TMP DP  RH WIND       PRES   REMARKS
BULLHEAD CITY  CLEAR    106  52  16 SE9       29.75S HX 103
KINGMAN        PTCLDY    88  58  36 E14G21    30.01R
$$

AZZ004>008-015-016-018-210300-
NORTH CENTRAL ARIZONA

CITY           SKY/WX    TMP DP  RH WIND       PRES   REMARKS
GRAND CANYON   CLOUDY    69  57  65 VRB3      30.27S
WILLIAMS       CLOUDY    66  57  72 S3        30.29S
PRESCOTT       MOCLDY    74  59  59 NE3       30.16F
FLAGSTAFF      CLOUDY    67  55  65 VRB3      30.32R
PAYSON         MOCLDY    75  61  60 NW3       30.19S
PAGE           MOCLDY    89  53  29 SW8       30.03R
$$

AZZ009>014-017-210300-
NORTHEAST ARIZONA

CITY           SKY/WX    TMP DP  RH WIND       PRES   REMARKS
WINSLOW        MOCLDY    74  59  59 E7        30.17R
SAINT JOHNS    CLOUDY    75  56  51 E16       30.19R
WINDOW ROCK    CLOUDY    71  52  50 SW3       30.27R
SHOW LOW       CLOUDY    70  54  56 S7        30.26R
$$

AZZ540-542>544-546-548-210300-
GREATER PHOENIX AREA

CITY           SKY/WX    TMP DP  RH WIND       PRES   REMARKS
PHOENIX        PTCLDY   100  61  27 W8        29.81R HX 101
BUCKEYE        MOCLDY    95  61  31 N22G33    29.84R
GLENDALE       MOCLDY    99  63  30 N8        29.83R HX 100
LUKE AFB       CLOUDY    97  62  31 W18G29    29.83R
DEER VALLEY    MOCLDY    89  73  59 W9        29.85R
SCOTTSDALE     HVY RAIN  87  68  52 S17G29    29.87R
MESA-FALCON    PTCLDY    97  64  34 N13       29.85R
MESA-GATEWAY   PTCLDY    99  61  28 W7        29.85S
CHANDLER       CLEAR    100  61  27 W10       29.83R HX 101
$$

AZZ539-553-210300-
SOUTHWEST MARICOPA COUNTY AND PINAL COUNTY

CITY           SKY/WX    TMP DP  RH WIND       PRES   REMARKS
CASA GRANDE    MOCLDY    93  65  39 S15G23    29.88R
GILA BEND      FAIR      98  62  30 S16       29.81R
$$

AZZ503-504-507>509-210300-
SOUTHEAST ARIZONA

CITY           SKY/WX    TMP DP  RH WIND       PRES   REMARKS
TUCSON         CLOUDY    83  66  56 N10       30.03R THUNDER
DAVIS-MONTHAN  TSTM      73  64  74 SW10G21   30.02R
RYAN FIELD     CLEAR     82  66  57 N9        30.02R
NOGALES        CLOUDY    72  66  81 S5        30.12R
SIERRA VISTA   CLOUDY    71  64  78 SW10      30.18R
DOUGLAS        CLOUDY    75  64  68 MISG      30.13R
SAFFORD        MOCLDY    84  63  49 S9        30.01R
$$

AZZ532-210300-
SOUTHWEST ARIZONA

CITY           SKY/WX    TMP DP  RH WIND       PRES   REMARKS
YUMA           CLEAR    103  54  19 S13       29.77S HX 101
$$

CAZ041-043-047-048-061-525>527-560>570-210300-
SOUTHERN CALIFORNIA

CITY           SKY/WX    TMP DP  RH WIND       PRES   REMARKS
DOWNTOWN L.A.  SUNNY     76  60  57 VRB3      29.92R
L.A. AIRPORT   MOSUNNY   71  64  78 W14       29.93R
SAN DIEGO      PTCLDY    73  64  73 SW7       29.97R
BURBANK        SUNNY     82  53  36 S9        29.92R
ONTARIO        SUNNY     84  53  34 W17       29.92R
RIVERSIDE      SUNNY     85  57  38 MISG      29.92R
PALM SPRINGS   CLEAR    105  54  18 NW15G28   29.78R HX 103
EL CENTRO NAS  PTCLDY   103  57  21 E12       29.75R HX 102
IMPERIAL       MOCLDY   104  62  25 SE16      29.73R HX 106
BLYTHE         PTCLDY   104  64  27 S12       29.76R HX 107
NEEDLES        CLEAR    108  53  16 SW10      29.77S HX 106
$$

NVZ020-UTZ003-210300-
SOUTHERN NEVADA-UTAH

CITY           SKY/WX    TMP DP  RH WIND       PRES   REMARKS
LAS VEGAS      MOCLDY    99  52  20 SE6       29.86S
SALT LAKE CITY MOCLDY    93  52  24 SE15      29.94F
$$

NMZ009-TXZ055-210300-
NEW MEXICO-WEST TEXAS

CITY           SKY/WX    TMP DP  RH WIND       PRES   REMARKS
ALBUQUERQUE    CLOUDY    81  53  37 SE10      30.16R
EL PASO        CLOUDY    80  62  54 SW18      30.09R THUNDER
$$


........................KEY........................
SKY/WX - SKY CONDITION/WEATHER
TMP    - TEMPERATURE IN FAHRENHEIT
DP     - DEW POINT IN FAHRENHEIT
RH     - RELATIVE HUMIDITY IN PERCENT
WIND   - DIRECTION AND SPEED IN MILES PER HOUR (MPH)
VRB    - VARIABLE WIND DIRECTION
PRES   - MEAN SEA LEVEL PRESSURE IN INCHES OF MERCURY
         F - FALLING PRESSURE   R - RISING PRESSURE
         S - STEADY PRESSURE
VSB    - VISIBILITY IN MILES
HX     - HEAT INDEX IN FAHRENHEIT
WCI    - WIND CHILL INDEX IN FAHRENHEIT
TC     - TEMPERATURE IN CELSIUS WHICH IS ALSO KNOWN AS
         TEMPERATURE IN CENTIGRADE
AFB    - AIR FORCE BASE
         LUKE AFB IS LUKE AIR FORCE BASE
         DAVIS-MONTHAN IS DAVIS-MONTHAN AIR FORCE BASE
NAS    - NAVAL AIR STATION
         EL CENTRO NAS IS EL CENTRO NAVAL AIR STATION
N/A    - NOT AVAILABLE





USA.gov is the U.S. government's official web portal to all federal, state and local government web resources and services.